Terug naar catalogus

CZ-6A DEB

ActiefPO
NORAD 60854·DEBRIS·🇨🇳 China

Gelanceerd Aug 6, 2024 vanaf Taiyuan Satellite Launch Center

Loading…

Volgende Passages (komende 24 uur)

TLE

VersSource: Space-Track

Epoch: Sep 14, 2026, 10:07 UTC

1 60854U 24140JH  26257.42216988  .00004880  00000-0  74991-3 0  9999
2 60854  88.9462 253.2536 0094313 277.5723  81.4790 14.70416589111299

Volg CZ-6A DEB in realtime met AllMySat

Download on the App Store